Regional Weather Roundup
Issued by NWS

Home | Current Version | Previous Version | Graphics & Text | Print | Product List | Glossary On
Versions: 1 2 3 4 5 6 7 8 9 10 11 12 13 14 15 16 17 18 19 20 21 22 23 24 25 26 27 28 29 30 31 32 33 34 35 36 37 38 39 40 41 42 43 44 45 46 47 48 49 50
000
ASUS43 KIND 051159
RWRIN

WEATHER ROUNDUP FOR INDIANA
NATIONAL WEATHER SERVICE INDIANAPOLIS IN
800 AM EDT TUE MAY 05 2015

NOTE: "FAIR" INDICATES FEW OR NO CLOUDS BELOW 12,000 FEET WITH NO
SIGNIFICANT WEATHER AND/OR OBSTRUCTIONS TO VISIBILITY.

* - STATION DOES NOT REPORT WEATHER SUCH AS PRECIPITATION OR FOG.

+ - STATION NOT QUALITY CONTROLLED BY THE NATIONAL WEATHER SERVICE.
    USE DATA WITH CAUTION...ESPECIALLY DEWPOINT AND RELATIVE
    HUMIDITY OBSERVATIONS.

INZ001>003-010>013-019-020-051300-
NORTHWEST INDIANA

CITY           SKY/WX    TMP DP  RH WIND       PRES   REMARKS
GARY /AIRPORT/ LGT RAIN  52 N/A N/A N5        30.22S

$$

LMZ046-743>745-051300-
SOUTHERN LAKE MICHIGAN

STATION/POSITION TIME  TEMP    WIND        PRES    WAVE
                       AIR SEA DIR/SP/G            HT
                 (UTC) (F)     (DEG/KT/KT) (MB)    (FT)
BURNS HARBOR     1100   48      60/  7/  9 1023.7R
MICHIGAN CITY    1100   48     320/  8/ 10   N/A
5NW MICH CITY    1100   46 50  340/ 12/ 17   N/A     1

$$

INZ004-005-014>016-021>024-051300-
NORTH CENTRAL INDIANA

CITY           SKY/WX    TMP DP  RH WIND       PRES   REMARKS
ELKHART        RAIN      57  57 100 CALM      30.23R
GOSHEN         LGT RAIN  61  59  93 SE7       30.22R FOG
6HR MIN TEMP:  56; 6HR MAX TEMP:  61; 6HR PCP:  0.25;

SOUTH BEND     LGT RAIN  59  57  93 E3        30.23R FOG
6HR MIN TEMP:  57; 6HR MAX TEMP:  62; 6HR PCP:  0.62;


$$

INZ006>009-017-018-025>027-051300-
NORTHEAST INDIANA

CITY           SKY/WX    TMP DP  RH WIND       PRES   REMARKS
ANGOLA *+      CLOUDY    57  57 100 E8        30.24R
FORT WAYNE     CLOUDY    60  60 100 CALM      30.23R FOG
6HR MIN TEMP:  55; 6HR MAX TEMP:  60; 6HR PCP:  0.27;


$$

INZ028-029-035-036-043>045-051>053-051300-
WEST CENTRAL INDIANA

CITY           SKY/WX    TMP DP  RH WIND       PRES   REMARKS
GREENCASTLE +  PTSUNNY   63  52  67 SW3       30.22R
LAFAYETTE      CLOUDY    60  59  96 E3        30.19R FOG
6HR MIN TEMP:  59; 6HR MAX TEMP:  62;

TERRE HAUTE    MOSUNNY   61  55  81 S3        30.21R
6HR MIN TEMP:  59; 6HR MAX TEMP:  66;


$$

INZ030>032-037>040-046>048-054>057-064-065-051300-
CENTRAL INDIANA

CITY           SKY/WX    TMP DP  RH WIND       PRES   REMARKS
COLUMBUS       SUNNY     57  55  94 CALM      30.24R FOG
GREENWOOD *+   MOSUNNY   63  57  82 S3        30.24R
INDIANAPOLIS   PTSUNNY   65  56  72 S7        30.21R
6HR MIN TEMP:  62; 6HR MAX TEMP:  65;

-EAGLE CREEK   PTSUNNY   63  58  83 S5        30.22R
6HR MIN TEMP:  60; 6HR MAX TEMP:  63;

KOKOMO *+      CLOUDY    63  61  94 S3        30.22R
6HR MIN TEMP:  61; 6HR MAX TEMP:  63; 6HR PCP:  0.09;

MT COMFORT *+  MOSUNNY   63  63 100 S5        30.24R
SHELBYVILLE    MOSUNNY   65  56  72 S7        30.23R
6HR MIN TEMP:  61; 6HR MAX TEMP:  65;


$$

INZ033-034-041-042-049-050-058-059-051300-
EAST CENTRAL INDIANA

CITY           SKY/WX    TMP DP  RH WIND       PRES   REMARKS
MUNCIE         CLOUDY    63  59  87 S7        30.23R
6HR MIN TEMP:  61; 6HR MAX TEMP:  63; 6HR PCP:  0.01;


$$

INZ060-061-067>069-081>083-085>088-051300-
SOUTHWEST INDIANA

CITY           SKY/WX    TMP DP  RH WIND       PRES   REMARKS
EVANSVILLE     MOSUNNY   60  55  83 CALM      30.24R
6HR MIN TEMP:  59; 6HR MAX TEMP:  67;

HUNTINGBURG *+ SUNNY     63  54  72 S3        30.25R
6HR MIN TEMP:  59; 6HR MAX TEMP:  66;


$$

INZ062-063-066-070>080-084-089>092-051300-
SOUTH CENTRAL AND SOUTHEAST INDIANA

CITY           SKY/WX    TMP DP  RH WIND       PRES   REMARKS
BLOOMINGTON    SUNNY     65  53  65 S3        30.23R
6HR MIN TEMP:  62; 6HR MAX TEMP:  68;

MADISON *+     SUNNY     61  55  82 CALM      30.28R
SEYMOUR +      SUNNY     63  57  82 CALM      30.25R FOG

$$




USA.gov is the U.S. government's official web portal to all federal, state and local government web resources and services.